THORAD DELTA 1 DEB, 8784

Orbit data source: Space-Track

THORAD DELTA 1 DEB, 8784 is space debris in SSO originally from a launch on Fri, 15 Nov 1974 UTC launched from the Air Force Western Test Range (AFWTR). Debris objects in space refer to the collection of defunct objects orbiting the Earth. Examples of debris include non-operational satellites, rocket bodies, and fragments generated from explosions, collisions, or faulty payload assembly.

Loading next visibility...
Identifier
8784, 1974-089DL
Orbit
SSO
Country
Flag of USUS
Related business
Manufacturer
Unknown
Mission
Spacecraft
Bus & Motor
Unknown
Mass
Unknown
Launch date (UTC)
1974-11-15 (51 years ago)
Launch vehicle
Unknown
Launch site
Air Force Western Test Range (AFWTR)
Object type
Payload
Rocket body
Debris
Shape & HBR
Unknown shape, 0.1 m
Radar Cross Section
Small (<0.1 m²)

Expand to show TLE details & history
Last TLE update: 17 hours ago

TLE from 17 hours ago
0 THORAD DELTA 1 DEB
1  8784U 74089DL  26126.10469553  .00004644  00000-0  69523-2 0  9990
2  8784 100.9038 169.2868 0175006 298.8116 117.5922 13.47836562526706
Epoch: 2026-05-06T02:30Z
TLE epoch observation values (Epoch: 2026-05-06T02:30:45.693Z)
Latitude
56.63089°
Longitude
-109.29189°
Altitude
1,151.803 km
Speed
7.252 km/s
True Right ascension
10h 09m 28s
True Declination
56° 28' 52"
Sunlit
Object was in daylight at epoch
Visualization orbit readout
Latitude
Unknown
Longitude
Unknown
Altitude
Unknown
Speed
Unknown
Apparent Right ascension
Unknown
Apparent Declination
Unknown
Sunlit
N/A
Visualization observer readout
Local Sidereal Time
03:01:33
Azimuth
Unknown
Elevation
Unknown
Doppler factor
Unknown
Orbital elements
Apogee altitude
1,208.077 km
Perigee altitude
947.118 km
Semi-major axis
7,455.734 km
Eccentricity
0.0175
Inclination
100.9038°
RAAN
169.2868°
Arg. of periapsis
298.8116°
True anomaly
119.35143°
Mean anomaly
117.5922°
Eccentric anomaly
118.47362°
Mean motion
3.37138 °/min
Orbital period
106.78 mins
BSTAR
0.0069523
Loading maneuver chart data...
Computing Atmospheric mass density...

Documentation

Showing up to 5 results
|